Location: Lane
(33.5226°N, 79.8788°W)
Time: 11:35:58
(UTC+00:00)

Tiros 1 despin weight - Pass Details

Date: 12 October 2022
Orbit: 590 x 637 km, 48.2° (Epoch: 25 November)

Event Time Altitude Azimuth Distance (km) Brightness Sun altitude
Rises 15:31:00 0° 196° (SSW) 2,800 ? 43.1°
Reaches altitude 10° 15:33:43 10° 179° (S) 1,903 ? 43.5°
Maximum altitude 15:36:57 20° 131° (SE) 1,356 ? 43.8°
Drops below altitude 10° 15:40:13 10° 83° (E) 1,915 ? 44.2°
Sets 15:42:57 0° 67° (ENE) 2,824 ? 44.4°
